| time (UTC) | temp F | wind direction | speed knots | gust knots | rain 1hr in | rain 24hr in | rain mn in | humidity % | barometer mb |
| 20260504034553 | 69 | 202 | 11.3 | 19.1 | 0.00 | 0.00 | 0.00 | 42 | 1005.4 |
| 20260504034021 | 69 | 188 | 10.4 | 20.0 | 0.00 | 0.00 | 0.00 | 43 | 1005.3 |
| 20260504033521 | 69 | 192 | 9.6 | 20.0 | 0.00 | 0.00 | 0.00 | 43 | 1005.4 |
| 20260504033038 | 69 | 195 | 10.4 | 19.1 | 0.00 | 0.00 | 0.00 | 44 | 1005.4 |
| 20260504032521 | 69 | 188 | 8.7 | 20.9 | 0.00 | 0.00 | 0.00 | 44 | 1005.4 |
| 20260504032023 | 69 | 195 | 9.6 | 20.9 | 0.00 | 0.00 | 0.00 | 44 | 1005.5 |
| 20260504031537 | 69 | 174 | 9.6 | 19.1 | 0.00 | 0.00 | 0.00 | 44 | 1005.5 |
| 20260504031021 | 69 | 187 | 9.6 | 17.4 | 0.00 | 0.00 | 0.00 | 43 | 1005.6 |
| 20260504030521 | 69 | 175 | 9.6 | 16.5 | 0.00 | 0.00 | 0.00 | 43 | 1005.5 |
| 20260504030042 | 69 | 160 | 8.7 | 15.6 | 0.00 | 0.00 | 0.00 | 43 | 1005.6 |
| 20260504025521 | 70 | 182 | 8.7 | 15.6 | 0.00 | 0.00 | 0.00 | 42 | 1005.5 |
| 20260504025023 | 70 | 178 | 10.4 | 15.6 | 0.00 | 0.00 | 0.00 | 42 | 1005.7 |
| 20260504024538 | 70 | 152 | 9.6 | 15.6 | 0.00 | 0.00 | 0.00 | 41 | 1005.7 |
| 20260504024023 | 70 | 169 | 8.7 | 14.8 | 0.00 | 0.00 | 0.00 | 41 | 1005.7 |
| 20260504023521 | 71 | 192 | 7.8 | 14.8 | 0.00 | 0.00 | 0.00 | 41 | 1005.6 |
| 20260504023040 | 71 | 172 | 7.8 | 15.6 | 0.00 | 0.00 | 0.00 | 40 | 1005.6 |
| 20260504022524 | 71 | 167 | 7.8 | 15.6 | 0.00 | 0.00 | 0.00 | 40 | 1005.6 |
| 20260504022022 | 71 | 197 | 8.7 | 14.8 | 0.00 | 0.00 | 0.00 | 40 | 1005.6 |
| 20260504021538 | 71 | 176 | 7.8 | 13.0 | 0.00 | 0.00 | 0.00 | 40 | 1005.6 |
| 20260504021021 | 71 | 159 | 7.8 | 13.9 | 0.00 | 0.00 | 0.00 | 39 | 1005.5 |
| 20260504020521 | 72 | 194 | 7.0 | 14.8 | 0.00 | 0.00 | 0.00 | 39 | 1005.5 |
| 20260504020037 | 72 | 173 | 7.8 | 14.8 | 0.00 | 0.00 | 0.00 | 39 | 1005.5 |
| 20260504015522 | 72 | 182 | 8.7 | 15.6 | 0.00 | 0.00 | 0.00 | 38 | 1005.5 |
| 20260504015021 | 72 | 188 | 7.8 | 15.6 | 0.00 | 0.00 | 0.00 | 37 | 1005.5 |
| 20260504014536 | 73 | 190 | 7.8 | 13.0 | 0.00 | 0.00 | 0.00 | 37 | 1005.4 |
| 20260504014020 | 73 | 188 | 7.8 | 13.0 | 0.00 | 0.00 | 0.00 | 36 | 1005.4 |
| 20260504013522 | 73 | 165 | 7.0 | 13.0 | 0.00 | 0.00 | 0.00 | 35 | 1005.5 |
| 20260504013047 | 74 | 194 | 7.0 | 12.2 | 0.00 | 0.00 | 0.00 | 34 | 1005.4 |
| 20260504012525 | 74 | 172 | 6.1 | 12.2 | 0.00 | 0.00 | 0.00 | 33 | 1005.4 |
| 20260504012022 | 75 | 182 | 5.2 | 8.7 | 0.00 | 0.00 | 0.00 | 32 | 1005.3 |
| 20260504011541 | 76 | 175 | 5.2 | 9.6 | 0.00 | 0.00 | 0.00 | 30 | 1005.3 |
| 20260504011021 | 77 | 207 | 5.2 | 9.6 | 0.00 | 0.00 | 0.00 | 29 | 1005.4 |
| 20260504010521 | 77 | 217 | 6.1 | 9.6 | 0.00 | 0.00 | 0.00 | 29 | 1005.3 |
| 20260504010038 | 78 | 213 | 5.2 | 11.3 | 0.00 | 0.00 | 0.00 | 29 | 1005.4 |
| 20260504005524 | 78 | 215 | 6.1 | 11.3 | 0.00 | 0.00 | 0.00 | 28 | 1005.4 |
| 20260504005025 | 78 | 206 | 6.1 | 13.0 | 0.00 | 0.00 | 0.00 | 28 | 1005.5 |
| 20260504004537 | 79 | 196 | 6.1 | 13.0 | 0.00 | 0.00 | 0.00 | 27 | 1005.5 |
| 20260504004026 | 79 | 215 | 6.1 | 13.0 | 0.00 | 0.00 | 0.00 | 27 | 1005.5 |
| 20260504003525 | 79 | 214 | 7.0 | 13.0 | 0.00 | 0.00 | 0.00 | 27 | 1005.6 |
| 20260504003037 | 80 | 246 | 6.1 | 13.9 | 0.00 | 0.00 | 0.00 | 26 | 1005.7 |
| 20260504002525 | 80 | 219 | 7.0 | 13.9 | 0.00 | 0.00 | 0.00 | 26 | 1005.7 |
| 20260504002024 | 80 | 211 | 7.0 | 15.6 | 0.00 | 0.00 | 0.00 | 26 | 1005.7 |
| 20260504001557 | 81 | 205 | 6.1 | 16.5 | 0.00 | 0.00 | 0.00 | 25 | 1005.8 |
| 20260504001025 | 81 | 207 | 7.0 | 16.5 | 0.00 | 0.00 | 0.00 | 26 | 1005.8 |
| 20260504000525 | 81 | 208 | 6.1 | 16.5 | 0.00 | 0.00 | 0.00 | 25 | 1005.9 |
| 20260504000040 | 82 | 234 | 8.7 | 16.5 | 0.00 | 0.00 | 0.00 | 25 | 1005.8 |
| 20260503235524 | 82 | 234 | 7.0 | 14.8 | 0.00 | 0.00 | 0.00 | 24 | 1005.9 |
| 20260503235025 | 82 | 239 | 7.0 | 14.8 | 0.00 | 0.00 | 0.00 | 24 | 1005.9 |
| 20260503234540 | 83 | 235 | 7.0 | 19.1 | 0.00 | 0.00 | 0.00 | 22 | 1006.0 |
| 20260503234022 | 83 | 259 | 10.4 | 19.1 | 0.00 | 0.00 | 0.00 | 22 | 1006.1 |
| 20260503233526 | 84 | 213 | 7.8 | 17.4 | 0.00 | 0.00 | 0.00 | 22 | 1006.1 |
| 20260503233040 | 85 | 236 | 9.6 | 17.4 | 0.00 | 0.00 | 0.00 | 22 | 1006.1 |
| 20260503232524 | 85 | 238 | 7.0 | 14.8 | 0.00 | 0.00 | 0.00 | 23 | 1006.1 |
| 20260503232021 | 85 | 242 | 8.7 | 17.4 | 0.00 | 0.00 | 0.00 | 22 | 1006.1 |
| 20260503231537 | 85 | 225 | 7.8 | 17.4 | 0.00 | 0.00 | 0.00 | 23 | 1006.2 |
| 20260503231021 | 85 | 239 | 8.7 | 23.5 | 0.00 | 0.00 | 0.00 | 21 | 1006.1 |
| 20260503230527 | 85 | 215 | 12.2 | 23.5 | 0.00 | 0.00 | 0.00 | 21 | 1006.1 |
| 20260503230037 | 86 | 231 | 10.4 | 20.0 | 0.00 | 0.00 | 0.00 | 20 | 1006.2 |
| 20260503225521 | 86 | 250 | 10.4 | 17.4 | 0.00 | 0.00 | 0.00 | 21 | 1006.2 |
| 20260503225024 | 86 | 218 | 6.1 | 16.5 | 0.00 | 0.00 | 0.00 | 22 | 1006.2 |
| 20260503224536 | 85 | 217 | 10.4 | 16.5 | 0.00 | 0.00 | 0.00 | 21 | 1006.3 |
| 20260503224022 | 85 | 226 | 10.4 | 17.4 | 0.00 | 0.00 | 0.00 | 20 | 1006.3 |
| 20260503223524 | 86 | 235 | 10.4 | 18.2 | 0.00 | 0.00 | 0.00 | 19 | 1006.4 |
| 20260503223041 | 86 | 246 | 10.4 | 18.2 | 0.00 | 0.00 | 0.00 | 21 | 1006.4 |
| 20260503222524 | 86 | 249 | 10.4 | 20.9 | 0.00 | 0.00 | 0.00 | 21 | 1006.4 |
| 20260503222021 | 86 | 198 | 10.4 | 20.9 | 0.00 | 0.00 | 0.00 | 21 | 1006.3 |
| 20260503221543 | 86 | 210 | 9.6 | 18.2 | 0.00 | 0.00 | 0.00 | 20 | 1006.5 |
| 20260503221026 | 86 | 226 | 8.7 | 20.0 | 0.00 | 0.00 | 0.00 | 20 | 1006.5 |
| 20260503220522 | 87 | 229 | 10.4 | 20.0 | 0.00 | 0.00 | 0.00 | 20 | 1006.6 |
| 20260503220040 | 87 | 226 | 9.6 | 19.1 | 0.00 | 0.00 | 0.00 | 21 | 1006.7 |
| 20260503215522 | 87 | 250 | 7.8 | 19.1 | 0.00 | 0.00 | 0.00 | 20 | 1006.7 |
| 20260503215025 | 86 | 235 | 8.7 | 21.7 | 0.00 | 0.00 | 0.00 | 21 | 1006.8 |
| 20260503214540 | 86 | 279 | 10.4 | 21.7 | 0.00 | 0.00 | 0.00 | 20 | 1006.9 |
| 20260503214022 | 87 | 238 | 12.2 | 21.7 | 0.00 | 0.00 | 0.00 | 21 | 1007.0 |
| 20260503213523 | 87 | 254 | 13.0 | 19.1 | 0.00 | 0.00 | 0.00 | 20 | 1007.1 |
| 20260503213043 | 86 | 267 | 10.4 | 22.6 | 0.00 | 0.00 | 0.00 | 20 | 1007.3 |
| 20260503212521 | 87 | 242 | 13.0 | 22.6 | 0.00 | 0.00 | 0.00 | 20 | 1007.3 |
| 20260503212021 | 87 | 248 | 8.7 | 22.6 | 0.00 | 0.00 | 0.00 | 21 | 1007.3 |
| 20260503211537 | 87 | 242 | 12.2 | 22.6 | 0.00 | 0.00 | 0.00 | 20 | 1007.4 |
| 20260503211022 | 86 | 227 | 10.4 | 19.1 | 0.00 | 0.00 | 0.00 | 20 | 1007.5 |
| 20260503210525 | 86 | 215 | 8.7 | 19.1 | 0.00 | 0.00 | 0.00 | 21 | 1007.6 |
| 20260503210036 | 86 | 260 | 10.4 | 19.1 | 0.00 | 0.00 | 0.00 | 21 | 1007.6 |
| 20260503205522 | 86 | 232 | 7.8 | 16.5 | 0.00 | 0.00 | 0.00 | 21 | 1007.8 |
| 20260503205022 | 86 | 229 | 7.8 | 20.0 | 0.00 | 0.00 | 0.00 | 21 | 1007.9 |
| 20260503204544 | 86 | 220 | 10.4 | 20.0 | 0.00 | 0.00 | 0.00 | 21 | 1007.8 |
| 20260503204022 | 86 | 271 | 11.3 | 20.0 | 0.00 | 0.00 | 0.00 | 19 | 1008.1 |
| 20260503203522 | 87 | 224 | 11.3 | 20.0 | 0.00 | 0.00 | 0.00 | 19 | 1008.2 |
| 20260503203042 | 86 | 287 | 10.4 | 21.7 | 0.00 | 0.00 | 0.00 | 20 | 1008.2 |
| 20260503202522 | 86 | 278 | 11.3 | 21.7 | 0.00 | 0.00 | 0.00 | 21 | 1008.3 |
| 20260503202022 | 86 | 240 | 10.4 | 21.7 | 0.00 | 0.00 | 0.00 | 21 | 1008.4 |
| 20260503201539 | 86 | 213 | 9.6 | 17.4 | 0.00 | 0.00 | 0.00 | 21 | 1008.5 |
| 20260503201024 | 85 | 244 | 9.6 | 21.7 | 0.00 | 0.00 | 0.00 | 20 | 1008.5 |
| 20260503200521 | 86 | 188 | 13.0 | 21.7 | 0.00 | 0.00 | 0.00 | 20 | 1008.6 |
| 20260503200038 | 86 | 228 | 7.8 | 21.7 | 0.00 | 0.00 | 0.00 | 20 | 1008.6 |
| 20260503195521 | 86 | 241 | 10.4 | 21.7 | 0.00 | 0.00 | 0.00 | 20 | 1008.7 |
| 20260503195021 | 86 | 258 | 8.7 | 17.4 | 0.00 | 0.00 | 0.00 | 20 | 1008.7 |
| 20260503194539 | 86 | 231 | 9.6 | 17.4 | 0.00 | 0.00 | 0.00 | 20 | 1008.9 |
| 20260503194023 | 85 | 198 | 8.7 | 21.7 | 0.00 | 0.00 | 0.00 | 20 | 1009.0 |
| 20260503193522 | 85 | 188 | 12.2 | 21.7 | 0.00 | 0.00 | 0.00 | 19 | 1008.9 |
| 20260503193039 | 86 | 225 | 9.6 | 20.9 | 0.00 | 0.00 | 0.00 | 21 | 1009.0 |
| 20260503192522 | 85 | 288 | 7.0 | 22.6 | 0.00 | 0.00 | 0.00 | 23 | 1009.1 |
| 20260503192021 | 85 | 234 | 13.0 | 22.6 | 0.00 | 0.00 | 0.00 | 20 | 1009.2 |
| 20260503191538 | 85 | 225 | 11.3 | 22.6 | 0.00 | 0.00 | 0.00 | 21 | 1009.2 |
| 20260503191022 | 85 | 250 | 11.3 | 20.0 | 0.00 | 0.00 | 0.00 | 21 | 1009.3 |
| 20260503190523 | 85 | 310 | 9.6 | 21.7 | 0.00 | 0.00 | 0.00 | 24 | 1009.4 |
| 20260503190046 | 84 | 206 | 11.3 | 23.5 | 0.00 | 0.00 | 0.00 | 22 | 1009.5 |
| 20260503185521 | 84 | 204 | 12.2 | 23.5 | 0.00 | 0.00 | 0.00 | 22 | 1009.6 |
| 20260503185021 | 84 | 238 | 8.7 | 20.0 | 0.00 | 0.00 | 0.00 | 23 | 1009.7 |
| 20260503184539 | 84 | 268 | 10.4 | 21.7 | 0.00 | 0.00 | 0.00 | 24 | 1009.6 |
| 20260503184023 | 84 | 269 | 11.3 | 21.7 | 0.00 | 0.00 | 0.00 | 26 | 1009.7 |
| 20260503183521 | 84 | 289 | 10.4 | 20.0 | 0.00 | 0.00 | 0.00 | 26 | 1009.9 |
| 20260503183054 | 84 | 270 | 10.4 | 20.0 | 0.00 | 0.00 | 0.00 | 27 | 1009.9 |
| 20260503182521 | 83 | 269 | 11.3 | 20.0 | 0.00 | 0.00 | 0.00 | 27 | 1010.0 |
| 20260503182022 | 83 | 227 | 9.6 | 19.1 | 0.00 | 0.00 | 0.00 | 32 | 1010.1 |
| 20260503181539 | 82 | 266 | 9.6 | 19.1 | 0.00 | 0.00 | 0.00 | 30 | 1010.2 |
| 20260503181022 | 82 | 242 | 9.6 | 19.1 | 0.00 | 0.00 | 0.00 | 30 | 1010.4 |
| 20260503180522 | 82 | 243 | 9.6 | 17.4 | 0.00 | 0.00 | 0.00 | 30 | 1010.6 |
| 20260503180049 | 82 | 214 | 7.8 | 15.6 | 0.00 | 0.00 | 0.00 | 33 | 1010.7 |
| 20260503175521 | 81 | 229 | 7.0 | 16.5 | 0.00 | 0.00 | 0.00 | 34 | 1010.8 |
| 20260503175022 | 80 | 259 | 8.7 | 17.4 | 0.00 | 0.00 | 0.00 | 32 | 1010.9 |
| 20260503174538 | 80 | 238 | 9.6 | 19.1 | 0.00 | 0.00 | 0.00 | 35 | 1011.0 |
| 20260503174022 | 80 | 250 | 10.4 | 19.1 | 0.00 | 0.00 | 0.00 | 33 | 1011.1 |
| 20260503173522 | 80 | 227 | 8.7 | 14.8 | 0.00 | 0.00 | 0.00 | 35 | 1011.2 |
| 20260503173051 | 80 | 244 | 7.0 | 13.0 | 0.00 | 0.00 | 0.00 | 35 | 1011.2 |
| 20260503172521 | 79 | 327 | 7.0 | 13.9 | 0.00 | 0.00 | 0.00 | 34 | 1011.3 |
| 20260503172020 | 79 | 220 | 7.0 | 13.9 | 0.00 | 0.00 | 0.00 | 40 | 1011.3 |
| 20260503171543 | 78 | 241 | 7.8 | 17.4 | 0.00 | 0.00 | 0.00 | 36 | 1011.3 |
| 20260503171022 | 78 | 256 | 7.0 | 17.4 | 0.00 | 0.00 | 0.00 | 36 | 1011.4 |
| 20260503170521 | 78 | 229 | 8.7 | 14.8 | 0.00 | 0.00 | 0.00 | 36 | 1011.4 |
| 20260503150522 | 68 | 242 | 6.1 | 14.8 | 0.00 | 0.00 | 0.00 | 54 | 1012.7 |
| 20260503131023 | 50 | 197 | 5.2 | 9.6 | 0.00 | 0.00 | 0.00 | 82 | 1013.0 |
| 20260503130522 | 49 | 189 | 5.2 | 9.6 | 0.00 | 0.00 | 0.00 | 84 | 1013.0 |
| 20260503110523 | 43 | 186 | 3.5 | 5.2 | 0.00 | 0.00 | 0.00 | 81 | 1013.3 |
| 20260503081545 | 44 | 187 | 4.3 | 8.7 | 0.00 | 0.00 | 0.00 | 79 | 1014.5 |
| 20260503081022 | 44 | 161 | 5.2 | 8.7 | 0.00 | 0.00 | 0.00 | 79 | 1014.5 |
| 20260503080525 | 44 | 195 | 5.2 | 9.6 | 0.00 | 0.00 | 0.00 | 79 | 1014.7 |
| 20260503072523 | 43 | 194 | 3.5 | 5.2 | 0.00 | 0.00 | 0.00 | 76 | 1015.0 |
| 20260503072024 | 44 | 176 | 2.6 | 5.2 | 0.00 | 0.00 | 0.00 | 75 | 1014.9 |
| 20260503071546 | 44 | 180 | 2.6 | 4.3 | 0.00 | 0.00 | 0.00 | 75 | 1015.0 |
| 20260503071022 | 44 | 186 | 2.6 | 4.3 | 0.00 | 0.00 | 0.00 | 74 | 1015.0 |
| 20260503070522 | 44 | 164 | 2.6 | 4.3 | 0.00 | 0.00 | 0.00 | 74 | 1015.1 |
| 20260503055022 | 47 | 165 | 3.5 | 4.3 | 0.00 | 0.02 | 0.00 | 69 | 1015.6 |
| 20260503054541 | 47 | 156 | 1.7 | 3.5 | 0.00 | 0.02 | 0.00 | 69 | 1015.6 |
| 20260503054022 | 47 | 140 | 2.6 | 3.5 | 0.00 | 0.02 | 0.00 | 68 | 1015.7 |
| 20260503053523 | 47 | 140 | 1.7 | 2.6 | 0.00 | 0.02 | 0.00 | 67 | 1015.8 |
| 20260503053037 | 48 | 140 | 1.7 | 2.6 | 0.00 | 0.02 | 0.00 | 66 | 1015.8 |
| 20260503052524 | 48 | 140 | 1.7 | 2.6 | 0.00 | 0.02 | 0.00 | 67 | 1015.8 |
| 20260503052022 | 48 | 140 | 1.7 | 3.5 | 0.00 | 0.02 | 0.00 | 67 | 1015.8 |
| 20260503051550 | 48 | 136 | 0.9 | 3.5 | 0.00 | 0.02 | 0.00 | 67 | 1015.8 |
| 20260503051025 | 48 | 134 | 2.6 | 3.5 | 0.00 | 0.02 | 0.00 | 67 | 1015.8 |
| 20260503050526 | 48 | 128 | 2.6 | 4.3 | 0.00 | 0.02 | 0.00 | 67 | 1015.8 |
| 20260503050041 | 48 | 144 | 1.7 | 4.3 | 0.00 | 0.02 | 0.00 | 67 | 1015.9 |
| 20260503045527 | 48 | 150 | 1.7 | 4.3 | 0.00 | 0.04 | 0.02 | 67 | 1015.9 |
| 20260503045025 | 48 | 147 | 1.7 | 3.5 | 0.00 | 0.04 | 0.02 | 66 | 1015.9 |
| 20260503044538 | 48 | 159 | 1.7 | 3.5 | 0.00 | 0.04 | 0.02 | 65 | 1015.8 |
| 20260503044024 | 48 | 154 | 1.7 | 2.6 | 0.00 | 0.04 | 0.02 | 65 | 1015.9 |
| 20260503043524 | 48 | 148 | 1.7 | 3.5 | 0.00 | 0.04 | 0.02 | 65 | 1015.9 |
| 20260503043037 | 48 | 147 | 1.7 | 4.3 | 0.00 | 0.04 | 0.02 | 64 | 1015.9 |
| 20260503042525 | 49 | 163 | 2.6 | 4.3 | 0.00 | 0.04 | 0.02 | 64 | 1015.8 |
| 20260503042027 | 49 | 157 | 1.7 | 4.3 | 0.00 | 0.04 | 0.02 | 63 | 1015.8 |
| 20260503041537 | 49 | 146 | 2.6 | 4.3 | 0.00 | 0.04 | 0.02 | 63 | 1015.8 |
| 20260503041024 | 49 | 167 | 3.5 | 4.3 | 0.00 | 0.04 | 0.02 | 61 | 1015.8 |
| 20260503040529 | 50 | 165 | 1.7 | 4.3 | 0.00 | 0.04 | 0.02 | 60 | 1015.8 |
| 20260503040037 | 50 | 147 | 1.7 | 4.3 | 0.00 | 0.04 | 0.02 | 60 | 1015.7 |
| 20260503035524 | 50 | 159 | 1.7 | 4.3 | 0.00 | 0.04 | 0.02 | 60 | 1015.8 |
| 20260503035025 | 50 | 151 | 1.7 | 4.3 | 0.00 | 0.04 | 0.02 | 59 | 1015.8 |